Date String (YYYY-MM-DD hh:mm:ss) UTC,Instrument flags,absolute air pressure of the measurement (hPa),sample flow rate (lpm),inlet stack bypass flow (lpm),air temperature of the measurement (°C),ambient temperature measured by the external sensor (°C),aerosol sample conditioner tube jacket temperature (°C),OPC LED temperature (°C),internal box temperature (°C),relative humidity of the measurement (%),span deviation,mass concentration of particles derived from Lorenz-Mie calculation of OPC scattering (μg/m³),mass concentration of particles derived from Lorenz-Mie calculation of OPC scattering (μg/m³),mass concentration of particles derived from Lorenz-Mie calculation of OPC scattering (μg/m³)
DateTimeUTC,F1_M11,P_M11,Q1_M11,Q2_M11,T1_M11,T2_M11,T3_M11,T4_M11,T5_M11,U1_M11,ZSPAN_M11,X2_M11,X0_M11,X1_M11
2024-06-09 09:00:00,SystemResetWarning,0830.1,5.00,000.00,030.7,029.9,000.0,039.2,032.4,025.1,0000.0,0004.35,0008.46,0003.78
2024-06-09 09:01:00,SystemResetWarning,0830.1,4.99,000.00,030.7,029.9,000.0,039.1,032.4,025.1,0000.0,0004.37,0008.46,0003.78
2024-06-09 09:02:00,SystemResetWarning,0830.1,4.99,000.00,030.7,029.9,000.0,039.1,032.4,025.0,0000.0,0004.40,0008.51,0003.78
2024-06-09 09:03:00,SystemResetWarning,0830.1,4.99,000.00,030.7,029.9,000.0,039.2,032.4,025.1,0000.0,0004.43,0008.70,0003.79
2024-06-09 09:04:00,SystemResetWarning,0830.0,5.01,000.00,030.7,029.9,000.0,039.2,032.4,025.1,0000.0,0004.43,0008.69,0003.80
2024-06-09 09:05:00,SystemResetWarning,0830.1,5.01,000.00,030.7,029.9,000.0,039.2,032.4,025.1,0000.0,0004.41,0008.58,0003.80
2024-06-09 09:06:00,SystemResetWarning,0830.0,5.00,000.00,030.7,029.9,000.0,039.1,032.4,025.0,0000.0,0004.37,0009.21,0003.80
2024-06-09 09:07:00,SystemResetWarning,0830.0,5.00,000.00,030.7,029.9,000.0,039.1,032.4,025.0,0000.0,0004.34,0009.17,0003.79
2024-06-09 09:08:00,SystemResetWarning,0830.0,4.99,000.00,030.7,029.9,000.0,039.1,032.4,025.0,0000.0,0004.32,0008.65,0003.77
2024-06-09 09:09:00,SystemResetWarning,0830.0,5.00,000.00,030.7,029.9,000.0,039.1,032.3,024.9,0000.0,0004.31,0008.65,0003.77
2024-06-09 09:10:00,SystemResetWarning,0830.1,5.01,000.00,030.7,029.9,000.0,039.1,032.3,024.9,0000.0,0004.30,0008.56,0003.76
2024-06-09 09:11:00,SystemResetWarning,0830.0,5.02,000.00,030.7,029.9,000.0,039.1,032.3,024.9,0000.0,0004.25,0008.39,0003.76
2024-06-09 09:12:00,SystemResetWarning,0830.1,5.00,000.00,030.7,029.9,000.0,039.1,032.3,024.8,0000.0,0004.23,0008.32,0003.76
2024-06-09 09:13:00,SystemResetWarning,0830.0,5.00,000.00,030.7,029.9,000.0,039.1,032.3,024.8,0000.0,0004.18,0008.19,0003.74
2024-06-09 09:14:00,SystemResetWarning,0830.0,5.00,000.00,030.7,029.9,000.0,039.1,032.3,024.8,0000.0,0004.17,0008.26,0003.74
2024-06-09 09:15:00,SystemResetWarning,0830.0,5.00,000.00,030.7,029.9,000.0,039.1,032.3,024.7,0000.0,0004.16,0008.30,0003.73
2024-06-09 09:16:00,SystemResetWarning,0830.0,5.00,000.00,030.7,029.9,000.0,039.1,032.4,024.7,0000.0,0004.16,0008.29,0003.72
2024-06-09 09:17:00,SystemResetWarning,0830.0,4.99,000.00,030.7,029.9,000.0,039.1,032.4,024.7,0000.0,0004.17,0007.63,0003.70
2024-06-09 09:18:00,SystemResetWarning,0830.0,5.00,000.00,030.7,029.9,000.0,039.1,032.4,024.6,0000.0,0004.18,0007.55,0003.70
2024-06-09 09:19:00,SystemResetWarning,0830.0,5.01,000.00,030.7,029.9,000.0,039.1,032.3,024.6,0000.0,0004.20,0007.77,0003.69
2024-06-09 09:20:00,SystemResetWarning,0830.0,5.01,000.00,030.7,029.9,000.0,039.1,032.3,024.6,0000.0,0004.23,0007.86,0003.69
2024-06-09 09:21:00,SystemResetWarning,0830.0,5.01,000.00,030.6,029.9,000.0,039.1,032.3,024.5,0000.0,0004.24,0007.97,0003.70
2024-06-09 09:22:00,SystemResetWarning,0830.0,4.99,000.00,030.6,029.9,000.0,039.1,032.3,024.5,0000.0,0004.28,0008.31,0003.69
2024-06-09 09:23:00,SystemResetWarning,0830.0,4.99,000.00,030.6,029.9,000.0,039.1,032.3,024.5,0000.0,0004.30,0008.86,0003.68
2024-06-09 09:24:00,SystemResetWarning,0830.0,4.99,000.00,030.6,029.9,000.0,039.1,032.3,024.6,0000.0,0004.32,0009.38,0003.68
2024-06-09 09:25:00,SystemResetWarning,0830.0,5.00,000.00,030.6,029.9,000.0,039.1,032.3,024.5,0000.0,0004.33,0009.19,0003.68
2024-06-09 09:26:00,SystemResetWarning,0830.0,5.00,000.00,030.6,029.8,000.0,039.1,032.3,024.4,0000.0,0004.33,0009.21,0003.68
2024-06-09 09:27:00,SystemResetWarning,0830.0,5.01,000.00,030.6,029.8,000.0,039.1,032.3,024.4,0000.0,0004.32,0009.26,0003.68
2024-06-09 09:28:00,SystemResetWarning,0830.0,5.00,000.00,030.6,029.8,000.0,039.1,032.3,024.3,0000.0,0004.30,0009.20,0003.69
2024-06-09 09:29:00,SystemResetWarning,0830.0,5.00,000.00,030.6,029.8,000.0,039.1,032.3,024.3,0000.0,0004.29,0009.16,0003.69
2024-06-09 09:30:00,SystemResetWarning,0830.0,5.00,000.00,030.6,029.8,000.0,039.1,032.3,024.3,0000.0,0004.23,0008.85,0003.69
2024-06-09 09:31:00,SystemResetWarning,0830.0,5.00,000.00,030.6,029.8,000.0,039.1,032.3,024.5,0000.0,0004.19,0008.75,0003.68
2024-06-09 09:32:00,SystemResetWarning,0830.0,5.00,000.00,030.6,029.8,000.0,039.1,032.3,024.4,0000.0,0004.14,0008.59,0003.67
2024-06-09 09:33:00,SystemResetWarning,0830.0,5.00,000.00,030.6,029.8,000.0,039.1,032.3,024.3,0000.0,0004.15,0008.51,0003.66
2024-06-09 09:34:00,SystemResetWarning,0830.0,5.00,000.00,030.6,029.8,000.0,039.1,032.3,024.3,0000.0,0004.15,0007.97,0003.66
2024-06-09 09:35:00,SystemResetWarning,0830.0,4.99,000.00,030.6,029.8,000.0,039.1,032.3,024.2,0000.0,0004.10,0007.44,0003.65
2024-06-09 09:36:00,SystemResetWarning,0830.0,5.01,000.00,030.6,029.8,000.0,039.1,032.2,024.3,0000.0,0004.08,0007.29,0003.65
2024-06-09 09:37:00,SystemResetWarning,0830.0,5.01,000.00,030.6,029.8,000.0,039.0,032.2,024.3,0000.0,0004.10,0007.23,0003.65
2024-06-09 09:38:00,SystemResetWarning,0830.0,5.01,000.00,030.6,029.8,000.0,039.0,032.2,024.2,0000.0,0004.12,0007.45,0003.64
2024-06-09 09:39:00,SystemResetWarning,0830.0,5.00,000.00,030.6,029.8,000.0,039.0,032.2,024.2,0000.0,0004.16,0007.60,0003.64
2024-06-09 09:40:00,SystemResetWarning,0830.0,4.99,000.00,030.6,029.8,000.0,039.0,032.3,024.2,0000.0,0004.16,0007.56,0003.63
2024-06-09 09:41:00,SystemResetWarning,0830.0,5.00,000.00,030.6,029.8,000.0,039.0,032.2,024.1,0000.0,0004.19,0007.63,0003.63
2024-06-09 09:42:00,SystemResetWarning,0830.0,4.99,000.00,030.5,029.8,000.0,039.0,032.2,024.1,0000.0,0004.18,0007.65,0003.62
2024-06-09 09:43:00,SystemResetWarning,0830.0,4.99,000.00,030.5,029.8,000.0,039.0,032.2,024.1,0000.0,0004.18,0007.95,0003.62
2024-06-09 09:44:00,SystemResetWarning,0830.0,5.00,000.00,030.5,029.8,000.0,039.0,032.2,024.1,0000.0,0004.16,0007.92,0003.60
2024-06-09 09:45:00,SystemResetWarning,0830.0,5.01,000.00,030.5,029.8,000.0,039.0,032.2,024.0,0000.0,0004.09,0007.70,0003.60
2024-06-09 09:46:00,SystemResetWarning,0830.0,5.00,000.00,030.5,029.8,000.0,039.0,032.2,024.0,0000.0,0004.10,0007.74,0003.59
2024-06-09 09:47:00,SystemResetWarning,0830.0,5.00,000.00,030.5,029.7,000.0,039.0,032.2,024.0,0000.0,0004.12,0007.84,0003.58
2024-06-09 09:48:00,SystemResetWarning,0830.0,5.00,000.00,030.5,029.7,000.0,039.0,032.2,023.9,0000.0,0004.10,0008.18,0003.56
2024-06-09 09:49:00,SystemResetWarning,0830.1,5.00,000.00,030.5,029.7,000.0,039.0,032.2,024.0,0000.0,0004.07,0008.03,0003.54
2024-06-09 09:50:00,SystemResetWarning,0830.0,5.00,000.00,030.5,029.7,000.0,039.0,032.2,024.1,0000.0,0004.07,0008.19,0003.53
2024-06-09 09:51:00,SystemResetWarning,0830.0,5.00,000.00,030.5,029.7,000.0,039.0,032.2,024.1,0000.0,0004.04,0008.26,0003.52
2024-06-09 09:52:00,SystemResetWarning,0830.0,5.00,000.00,030.5,029.7,000.0,039.0,032.2,024.1,0000.0,0004.02,0008.31,0003.52
2024-06-09 09:53:00,SystemResetWarning,0830.0,5.00,000.00,030.5,029.7,000.0,039.0,032.2,024.2,0000.0,0004.04,0008.34,0003.52
2024-06-09 09:54:00,SystemResetWarning,0830.0,4.99,000.00,030.5,029.7,000.0,039.0,032.2,024.2,0000.0,0004.07,0008.11,0003.53
2024-06-09 09:55:00,SystemResetWarning,0830.0,5.00,000.00,030.5,029.7,000.0,039.0,032.2,024.1,0000.0,0004.08,0008.51,0003.54
2024-06-09 09:56:00,SystemResetWarning,0830.0,4.99,000.00,030.5,029.7,000.0,039.0,032.2,024.0,0000.0,0004.10,0008.81,0003.53
2024-06-09 09:57:00,SystemResetWarning,0830.0,5.00,000.00,030.5,029.7,000.0,039.0,032.2,024.0,0000.0,0004.10,0008.83,0003.53
2024-06-09 09:58:00,SystemResetWarning,0830.0,5.00,000.00,030.5,029.7,000.0,039.0,032.2,024.0,0000.0,0004.07,0008.88,0003.53
2024-06-09 09:59:00,SystemResetWarning,0830.0,4.99,000.00,030.5,029.7,000.0,039.0,032.2,024.0,0000.0,0004.06,0008.94,0003.52
